Powrót do katalogu

OPS 5721

AktywnyMilitariaSSO
NORAD 9415·PAYLOAD·🇺🇸 United States

Wystrzelony Sep 11, 1976 z Vandenberg Space Force Base

Loading…

Następne Przeloty (najbliższe 24 godziny)

TLE

ŚwieżeSource: Space-Track

Epoka: Sep 14, 2026, 09:57 UTC

1 09415U 76091A   26257.41524236  .00000092  00000-0  53934-4 0  9990
2 09415  98.3713  44.6219 0017126 359.7535   0.3635 14.27887463365249

Śledź OPS 5721 w czasie rzeczywistym z AllMySat

Download on the App Store